CST,Max TemperatureF,Mean TemperatureF,Min TemperatureF,Max Dew PointF,MeanDew PointF,Min DewpointF,Max Humidity, Mean Humidity, Min Humidity, Max Sea Level PressureIn, Mean Sea Level PressureIn, Min Sea Level PressureIn, Max VisibilityMiles, Mean VisibilityMiles, Min VisibilityMiles, Max Wind SpeedMPH, Mean Wind SpeedMPH, Max Gust SpeedMPH,PrecipitationIn, CloudCover, Events, WindDirDegrees
2011-12-1,26,17,8,23,11,3,86,73,58,30.53,30.45,30.28,10,10,10,17,11,17,0.00,4,,294
2011-12-2,35,30,24,30,21,18,93,73,56,30.04,29.77,29.64,10,10,10,28,22,34,0.00,1,,220
2011-12-3,30,20,10,27,15,7,100,78,68,30.06,29.99,29.81,10,10,10,23,13,28,0.00,5,,305
2011-12-4,21,16,12,19,14,3,100,90,67,30.27,30.09,30.01,10,9,2,16,4,,0.00,4,,89
2011-12-5,8,2,-4,5,-1,-9,100,83,66,30.53,30.45,30.27,10,10,2,13,6,21,0.00,3,,252
2011-12-6,28,17,6,25,10,0,92,72,54,30.26,29.89,29.67,10,10,10,29,18,37,0.00,1,,217
2011-12-7,30,22,14,28,16,9,100,80,68,30.03,29.97,29.83,10,10,8,22,13,26,0.00,3,,310
2011-12-8,14,11,8,9,3,0,85,69,57,30.07,30.04,30.01,10,10,10,28,19,34,0.00,1,,288
2011-12-9,12,6,1,1,-4,-8,85,67,45,30.24,30.18,30.10,10,10,10,17,13,21,0.00,0,,278
2011-12-10,35,26,17,25,18,10,93,75,56,29.98,29.93,29.83,10,10,10,17,11,16,0.00,1,,233
2011-12-11,37,30,23,27,23,19,86,73,65,29.96,29.81,29.71,10,10,10,16,12,,0.00,0,,294
2011-12-12,19,17,15,18,14,10,100,83,73,30.33,30.24,30.10,10,10,10,17,12,20,0.00,7,,28
2011-12-13,26,17,8,27,17,5,100,94,85,30.34,30.19,30.01,10,7,2,12,7,,0.00,7,,151
2011-12-14,28,26,23,27,25,19,100,94,86,29.92,29.78,29.69,10,6,2,17,9,21,0.00,8,,229
2011-12-15,28,22,15,21,15,7,86,73,68,30.30,30.04,29.75,10,10,10,28,19,37,0.00,6,,332
2011-12-16,24,19,14,21,16,10,93,86,79,30.32,30.25,30.11,10,10,5,18,7,22,0.00,8,,192
2011-12-17,33,27,21,25,20,18,93,78,56,30.10,30.00,29.82,10,10,7,20,12,24,0.00,0,,244
2011-12-18,48,38,28,30,27,25,87,76,46,29.86,29.67,29.53,10,10,10,24,13,29,0.00,2,,272
2011-12-19,30,22,15,21,16,12,100,81,64,30.24,30.15,29.97,10,10,10,23,14,28,0.00,1,,295
2011-12-20,39,30,21,27,22,16,80,66,49,30.02,29.64,29.52,10,10,10,24,15,30,0.00,3,,253
2011-12-21,33,30,26,27,24,19,93,81,69,30.01,29.76,29.56,10,10,10,15,9,20,0.00,6,,351
2011-12-22,28,20,12,19,15,9,93,76,59,30.23,30.18,30.02,10,10,10,17,12,22,0.00,3,,264
2011-12-23,28,24,17,21,17,12,86,71,59,30.01,29.94,29.84,10,10,10,21,15,28,0.00,2,,303
2011-12-24,37,26,15,21,19,9,93,71,52,29.96,29.93,29.89,10,10,10,23,12,29,0.00,1,,272
2011-12-25,39,30,21,25,22,19,93,71,52,30.24,30.14,29.95,10,10,10,21,16,29,0.00,0,,260
2011-12-26,42,36,30,34,27,23,87,67,49,29.71,29.54,29.42,10,10,9,37,16,45,0.00,2,,260
2011-12-27,19,12,6,18,7,1,93,80,62,30.10,30.02,29.90,10,10,10,29,13,24,0.06,1,,39
2011-12-28,30,21,12,28,19,10,100,89,79,29.74,29.63,29.51,10,9,1,17,9,,0.00,3,,207
2011-12-29,26,16,6,25,19,1,100,92,79,29.63,29.56,29.49,10,8,0,16,8,,0.00,5,,97
2011-12-30,24,22,19,25,21,18,100,94,86,29.75,29.66,29.48,10,8,2,13,9,,0.01,8,,42
2011-12-31,33,28,24,30,26,19,100,89,74,29.93,29.62,29.44,10,9,5,28,15,33,0.07,5,,245